[[{"header":{"parameterUnit":"m.s-1","parameterCategory":2,"la1":30.2991,"la2":30.254,"lo1":-89.0895,"lo2":-89.0444,"dy":0.0017,"dx":0.0017,"nx":28,"ny":28,"refTime":"2024-03-19T09:00:00:Z","depth":"0","parameterNumber":2,"parameterNumberName":"U-component_of_CURRENTS"},"data":[0,0,0,0,0,0,0,0,0,0,0,0,0,0,0,0,0,0,0,0,0,0,0,0,0,0,0,0,0,0,0,0,0,0,0,0,0,0,0,0,0,0,0,0,0,0,0,0,0,0,0,0,0,0,0,0,0,0,0.2757,0.2757,0,0.2786,0.2786,0.2786,0.2839,0.284,0.2842,0.2843,0.2883,0.2882,0.2882,0,0,0,0,0,0,0,0,0,0,0,0,0,0.2722,0.2722,0.2757,0.2757,0.2758,0.2786,0.2786,0.2786,0.2839,0.284,0.2842,0.2844,0.2883,0.2882,0.2882,0,0,0,0,0,0,0,0,0,0,0,0,0,0.274,0.2722,0.2757,0.279,0.2793,0.2786,0.2786,0.2786,0.2839,0.2841,0.2842,0.2844,0.2883,0.2882,0.2882,0.2842,0,0,0.2882,0.2881,0,0,0,0,0,0,0,0,0.2739,0.274,0.2784,0.2788,0.2792,0.2814,0.2789,0.2807,0.2838,0.2818,0.2843,0.2845,0.2861,0.2863,0.2859,0.2844,0.2845,0.2882,0.2881,0.2881,0.2881,0,0,0,0,0,0,0,0.2737,0.2739,0.2765,0.2785,0.2789,0.2795,0.28,0.2792,0.2826,0.282,0.2825,0.2832,0.2863,0.2859,0.2861,0.2846,0.2882,0.2881,0.2881,0.2881,0.2883,0.2884,0,0,0,0,0,0,0.2739,0.2738,0.2764,0.2766,0.2773,0.2795,0.28,0.2802,0.2826,0.2832,0.2831,0.2835,0.2859,0.2861,0.2862,0.2892,0.2881,0.2881,0.2881,0.2883,0.2883,0.2884,0,0,0,0,0,0,0.2738,0.2741,0.2763,0.2756,0.276,0.2794,0.2796,0.2802,0.2808,0.2835,0.2841,0.2833,0.286,0.2863,0.287,0.2892,0.2881,0.2881,0.2883,0.2883,0.2884,0.2903,0,0,0,0,0,0,0.2737,0.274,0.2737,0.2756,0.276,0.2767,0.2794,0.2801,0.2811,0.2817,0.2838,0.2844,0.2862,0.287,0.2869,0.2891,0.2881,0.2883,0.2883,0.2883,0.2903,0.2904,0.2906,0,0,0,0,0,0.2735,0.2722,0.2736,0.274,0.2756,0.2767,0.2769,0.2798,0.2809,0.281,0.2829,0.2843,0.2873,0.2869,0.2869,0.2891,0.2883,0.2883,0.2883,0.2902,0.2904,0.2906,0,0,0,0,0,0,0.2702,0.2727,0.2743,0.2738,0.2757,0.2777,0.2777,0.2791,0.2803,0.281,0.2833,0.2839,0.2865,0.286,0.2855,0.2893,0.2884,0.2885,0.2898,0.2901,0.2902,0.2924,0.288,0,0,0,0,0,0.2693,0.2693,0.272,0.2717,0.2725,0.2748,0.2753,0.2774,0.2789,0.2797,0.2816,0.2835,0.2861,0.2866,0.2885,0.2882,0.2902,0.2899,0.2901,0.2903,0.292,0.2957,0.2964,0.2885,0.2885,0.2885,0,0,0.2678,0.2693,0.2692,0.271,0.2725,0.2745,0.2756,0.2765,0.279,0.2796,0.2825,0.2842,0.2863,0.2886,0.2896,0.2886,0.2934,0.2903,0.2905,0.2921,0.2958,0.2966,0.2973,0.2885,0.2885,0.2885,0,0,0.266,0.2663,0.2667,0.2685,0.2712,0.273,0.2733,0.2758,0.2778,0.2795,0.2826,0.2851,0.2865,0.2901,0.2917,0.2928,0.2949,0.2931,0.2949,0.2985,0.2992,0.2999,0.3031,0.3041,0.2923,0.2923,0.2923,0,0.2647,0.2659,0.2668,0.2686,0.2707,0.2726,0.2747,0.2764,0.2791,0.2812,0.2811,0.287,0.2882,0.2934,0.2948,0.2937,0.2956,0.2941,0.2989,0.2996,0.3003,0.3034,0.3045,0.2924,0.2924,0.2924,0.2924,0,0.2648,0.266,0.2662,0.2701,0.2716,0.2731,0.2768,0.2787,0.2808,0.2835,0.2884,0.2901,0.2943,0.2948,0.2953,0.3009,0.3008,0.2995,0.2987,0.3012,0.3043,0.3054,0.2925,0.2925,0.2925,0.2925,0,0,0.2625,0.2658,0.2663,0.2686,0.2729,0.2741,0.2783,0.283,0.2865,0.289,0.2941,0.298,0.2993,0.3012,0.3022,0.3046,0.3104,0.3039,0.304,0.3078,0.3186,0.3204,0.3217,0.3099,0.3101,0.3103,0.3188,0,0.2635,0.2669,0.2683,0.2719,0.2747,0.2778,0.2814,0.2857,0.2896,0.2945,0.2979,0.3025,0.3017,0.3038,0.3066,0.3106,0.3133,0.3083,0.3151,0.3153,0.3172,0.323,0.3198,0.3273,0.3198,0.32,0.3201,0,0.2649,0.2672,0.2708,0.2747,0.2759,0.2778,0.2847,0.2882,0.2955,0.2985,0.304,0.307,0.3134,0.3108,0.3195,0.3163,0.3182,0.3198,0.3201,0.3224,0.3192,0.3236,0.3295,0.3233,0.3217,0.3216,0.3215,0,0.2657,0.269,0.2719,0.2735,0.2782,0.2801,0.2826,0.2895,0.2937,0.3017,0.3063,0.313,0.3182,0.3216,0.3269,0.3234,0.3359,0.331,0.3344,0.3344,0.3335,0.3333,0.3352,0.3368,0.3368,0.3367,0.3367,0,0.2676,0.2696,0.2718,0.274,0.2766,0.2798,0.2841,0.2884,0.2958,0.3012,0.3081,0.3152,0.3213,0.3293,0.3306,0.3383,0.3395,0.3377,0.338,0.334,0.3336,0.3297,0.3247,0.3371,0.337,0.3369,0.3369,0,0.2683,0.2703,0.2736,0.2771,0.2774,0.2796,0.2838,0.2875,0.2949,0.303,0.3061,0.3195,0.3305,0.3369,0.3449,0.3449,0.3425,0.3513,0.3467,0.3464,0.3412,0.3365,0.3256,0.3155,0.3557,0.3558,0.3559,0,0.2688,0.2707,0.2745,0.2756,0.2765,0.279,0.2808,0.2867,0.2907,0.3055,0.3094,0.3247,0.3348,0.3504,0.3551,0.3608,0.3474,0.3584,0.3508,0.3437,0.3385,0.3208,0.3115,0.3498,0.3499,0.3499,0.3499,0,0.269,0.2706,0.2725,0.2751,0.2764,0.2782,0.2807,0.2836,0.2915,0.2993,0.3115,0.3217,0.3413,0.3498,0.3606,0.3625,0.3444,0.3592,0.3531,0.3368,0.3163,0.3058,0.3409,0.3502,0.3502,0.3502,0.3501,0.3501,0.2674,0.2685,0.2707,0.2722,0.2743,0.2754,0.2742,0.2787,0.2842,0.292,0.3067,0.3188,0.3404,0.3575,0.3564,0.3574,0.3466,0.3506,0.3463,0.3296,0.3165,0.353,0.3615,0.3616,0.3616,0.3616,0.3616,0,0.263,0.2643,0.2668,0.2677,0.2675,0.2704,0.2717,0.2687,0.2709,0.2855,0.2947,0.3175,0.331,0.3435,0.3568,0.3484,0.3278,0.3391,0.3138,0.3057,0.3426,0.3394,0.3419,0.3419,0.342,0.342,0.342,0.342,0.2606,0.2599,0.2611,0.2588,0.2594,0.2544,0.2532,0.2508,0.2572,0.2658,0.2784,0.2929,0.3249,0.3483,0.3485,0.34,0.3113,0.3012,0.2913,0.3214,0.322,0.3225,0.3185,0.3166,0.3165,0.2454,0.2449,0.2445]},{"header":{"parameterUnit":"m.s-1","parameterCategory":2,"la1":30.2991,"la2":30.254,"lo1":-89.0895,"lo2":-89.0444,"dy":0.0017,"dx":0.0017,"nx":28,"ny":28,"refTime":"2024-03-19T09:00:00:Z","depth":"0","parameterNumber":3,"parameterNumberName":"V-component_of_CURRENTS"},"data":[0,0,0,0,0,0,0,0,0,0,0,0,0,0,0,0,0,0,0,0,0,0,0,0,0,0,0,0,0,0,0,0,0,0,0,0,0,0,0,0,0,0,0,0,0,0,0,0,0,0,0,0,0,0,0,0,0,0,-0.0008,-0.0009,0,-0.0081,-0.0082,-0.0083,-0.0147,-0.0148,-0.0148,-0.0149,-0.0296,-0.03,-0.0303,0,0,0,0,0,0,0,0,0,0,0,0,0,0.0027,0.0027,-0.0008,-0.0009,-0.001,-0.0081,-0.0082,-0.0083,-0.0147,-0.0148,-0.0149,-0.0149,-0.0295,-0.0299,-0.0303,0,0,0,0,0,0,0,0,0,0,0,0,0,-0.0012,0.0027,-0.0008,-0.005,-0.0054,-0.008,-0.0082,-0.0083,-0.0147,-0.0148,-0.0149,-0.015,-0.0294,-0.0299,-0.0304,-0.0314,0,0,-0.0319,-0.0321,0,0,0,0,0,0,0,0,-0.0009,-0.0013,-0.0043,-0.0047,-0.0052,-0.0105,-0.0123,-0.0164,-0.0147,-0.0113,-0.0149,-0.015,-0.0238,-0.0248,-0.0259,-0.0321,-0.0327,-0.0319,-0.0322,-0.0324,-0.0326,0,0,0,0,0,0,0,-0.0006,-0.0011,-0.0038,-0.0044,-0.0049,-0.0081,-0.0087,-0.0131,-0.0171,-0.0116,-0.012,-0.0127,-0.0241,-0.0254,-0.0263,-0.0329,-0.0319,-0.0323,-0.0326,-0.0328,-0.0408,-0.0407,0,0,0,0,0,0,0.0008,-0.0007,-0.0036,-0.004,-0.0032,-0.0081,-0.0088,-0.0088,-0.0169,-0.0181,-0.0126,-0.0129,-0.0245,-0.0257,-0.0269,-0.0285,-0.0324,-0.0329,-0.0332,-0.0409,-0.0408,-0.0407,0,0,0,0,0,0,0.0009,0.0007,-0.0033,-0.0025,-0.0032,-0.008,-0.008,-0.0089,-0.0104,-0.0175,-0.019,-0.0131,-0.0247,-0.0262,-0.0298,-0.0291,-0.0331,-0.0336,-0.041,-0.0409,-0.0408,-0.0318,0,0,0,0,0,0,0.0011,0.0008,0.0012,-0.0024,-0.0032,-0.0041,-0.0079,-0.0089,-0.0105,-0.0111,-0.0185,-0.02,-0.0249,-0.029,-0.0303,-0.0299,-0.0339,-0.0411,-0.0409,-0.0408,-0.0322,-0.0314,-0.0307,0,0,0,0,0,0.0012,0.0028,0.0013,0.001,-0.0024,-0.004,-0.0047,-0.0085,-0.0104,-0.0104,-0.015,-0.0197,-0.0289,-0.0293,-0.0308,-0.0306,-0.0412,-0.041,-0.0408,-0.0326,-0.0316,-0.0307,0,0,0,0,0,0,0.0046,0.0022,0.0005,0.0012,-0.001,-0.005,-0.0052,-0.0077,-0.0112,-0.0117,-0.0188,-0.0205,-0.0235,-0.0277,-0.028,-0.0322,-0.0358,-0.0359,-0.029,-0.0282,-0.0274,-0.0253,-0.0344,0,0,0,0,0,0.0058,0.006,0.0031,0.0035,0.003,-0.0009,-0.0021,-0.0043,-0.0078,-0.0094,-0.0144,-0.0195,-0.0237,-0.0264,-0.0307,-0.033,-0.0364,-0.0337,-0.0329,-0.0323,-0.0315,-0.0356,-0.0352,-0.0401,-0.0401,-0.0401,0,0,0.007,0.0058,0.0058,0.0042,0.0023,0.0027,-0.0019,-0.0025,-0.0026,-0.0105,-0.0121,-0.0171,-0.0236,-0.0261,-0.0279,-0.0298,-0.0324,-0.032,-0.0314,-0.031,-0.0354,-0.0349,-0.0345,-0.04,-0.04,-0.04,0,0,0.0104,0.009,0.0106,0.0097,0.0079,0.0057,0.006,0.0027,0.0008,-0.001,-0.0066,-0.0108,-0.017,-0.0215,-0.0247,-0.0223,-0.0281,-0.0236,-0.0186,-0.0226,-0.0222,-0.0219,-0.0243,-0.0243,-0.0234,-0.0234,-0.0234,0,0.0119,0.0137,0.0107,0.0123,0.0125,0.0077,0.0099,0.0076,0.0035,0.0025,-0.0003,-0.0087,-0.0149,-0.0182,-0.0176,-0.0207,-0.023,-0.0215,-0.0216,-0.0214,-0.0212,-0.0238,-0.0239,-0.0229,-0.023,-0.023,-0.0231,0,0.0166,0.018,0.0192,0.0196,0.0193,0.0205,0.0176,0.0168,0.0139,0.0109,0.0074,-0.0002,-0.0053,-0.008,-0.0125,-0.0144,-0.0163,-0.0199,-0.0237,-0.0202,-0.0231,-0.0234,-0.0223,-0.0225,-0.0226,-0.0227,0,0,0.0197,0.022,0.0223,0.0245,0.0237,0.0243,0.0248,0.0237,0.0245,0.019,0.0191,0.0105,0.0062,0.0024,-0.004,-0.008,-0.0097,-0.0127,-0.0132,-0.0146,-0.0168,-0.0171,-0.0175,-0.0132,-0.0132,-0.0132,-0.0186,0,0.0241,0.0294,0.029,0.0339,0.0365,0.0338,0.0352,0.0336,0.0305,0.0293,0.0209,0.018,0.0102,0.0081,0.0029,-0.0067,-0.0102,-0.0078,-0.0204,-0.0207,-0.0211,-0.0178,-0.0149,-0.0194,-0.019,-0.019,-0.0191,0,0.0286,0.0318,0.0376,0.0422,0.0432,0.0452,0.0469,0.0476,0.044,0.0414,0.0365,0.0302,0.0231,0.0164,0.0024,0.0047,-0.0047,-0.0123,-0.0128,-0.0165,-0.0216,-0.0232,-0.02,-0.0399,-0.0196,-0.0196,-0.0195,0,0.0324,0.0379,0.043,0.0444,0.0483,0.0507,0.0523,0.051,0.0537,0.049,0.0499,0.0396,0.0359,0.0225,0.0066,0.0046,-0.0078,-0.0132,-0.0219,-0.022,-0.0237,-0.0239,-0.041,-0.0219,-0.0219,-0.0219,-0.0219,0,0.037,0.0414,0.0455,0.0485,0.0557,0.0562,0.0629,0.0619,0.0634,0.0686,0.0567,0.0583,0.0375,0.0279,0.0114,-0.0048,-0.0044,-0.0197,-0.0233,-0.0204,-0.0202,-0.0411,-0.0513,-0.0221,-0.0221,-0.022,-0.022,0,0.0403,0.0427,0.0497,0.0554,0.0578,0.0628,0.0715,0.0767,0.0756,0.0821,0.0817,0.0729,0.0602,0.0397,0.0186,0.0031,-0.0242,-0.0199,-0.0141,-0.0168,-0.0441,-0.0537,-0.0727,-0.0807,-0.0306,-0.0306,-0.0307,0,0.0426,0.0463,0.0548,0.0602,0.0632,0.0713,0.0782,0.0817,0.0886,0.0925,0.0971,0.0874,0.0838,0.0522,0.022,-0.0057,-0.0243,-0.0213,-0.0258,-0.0441,-0.0576,-0.0653,-0.0712,-0.0244,-0.0244,-0.0244,-0.0244,0,0.0476,0.0502,0.0564,0.0673,0.0755,0.086,0.0962,0.1044,0.1108,0.1165,0.1234,0.1213,0.092,0.065,0.026,0.0058,-0.034,-0.0218,-0.0432,-0.0554,-0.0625,-0.0722,-0.0219,-0.0242,-0.0242,-0.0242,-0.0242,-0.0242,0.0516,0.0571,0.0657,0.0763,0.0867,0.1009,0.1116,0.1235,0.1373,0.1498,0.1459,0.1475,0.1066,0.0534,0.0216,-0.0337,-0.0351,-0.0502,-0.0605,-0.0667,-0.0745,-0.0225,-0.0276,-0.0276,-0.0276,-0.0277,-0.0277,0,0.0575,0.0643,0.0746,0.0887,0.102,0.1058,0.1245,0.1363,0.1546,0.1667,0.1734,0.158,0.1064,0.0528,-0.0222,-0.0642,-0.0798,-0.0875,-0.0996,-0.104,-0.0599,-0.0598,-0.069,-0.069,-0.069,-0.069,-0.0689,-0.0689,0.0611,0.0719,0.0777,0.0998,0.1104,0.1294,0.1411,0.1572,0.1703,0.1874,0.1923,0.1921,0.1523,0.014,-0.0826,-0.1053,-0.1341,-0.1403,-0.1566,-0.1292,-0.1266,-0.1241,-0.1267,-0.1498,-0.1499,-0.195,-0.1955,-0.1958]}],[{"header":{"parameterUnit":"m.s-1","parameterCategory":2,"la1":30.2991,"la2":30.254,"lo1":-89.0895,"lo2":-89.0444,"dy":0.0017,"dx":0.0017,"nx":28,"ny":28,"refTime":"2024-03-19T09:00:00:Z","depth":"2","parameterNumber":2,"parameterNumberName":"U-component_of_CURRENTS"},"data":[0,0,0,0,0,0,0,0,0,0,0,0,0,0,0,0,0,0,0,0,0,0,0,0,0,0,0,0,0,0,0,0,0,0,0,0,0,0,0,0,0,0,0,0,0,0,0,0,0,0,0,0,0,0,0,0,0,0,0.2187,0.2188,0,0.2236,0.2236,0.2237,0.2293,0.2294,0.2295,0.2296,0.2346,0.2347,0.2347,0,0,0,0,0,0,0,0,0,0,0,0,0,0.2126,0.2127,0.2187,0.2188,0.2189,0.2236,0.2236,0.2237,0.2293,0.2294,0.2295,0.2296,0.2346,0.2347,0.2347,0,0,0,0,0,0,0,0,0,0,0,0,0,0.216,0.2127,0.2187,0.2223,0.2227,0.2236,0.2236,0.2237,0.2292,0.2294,0.2295,0.2297,0.2346,0.2347,0.2347,0.2323,0,0,0.235,0.235,0,0,0,0,0,0,0,0,0.2158,0.2162,0.2217,0.2221,0.2225,0.2261,0.2234,0.2266,0.2292,0.2266,0.2296,0.2297,0.2318,0.2321,0.2325,0.2325,0.2328,0.235,0.235,0.235,0.2351,0,0,0,0,0,0,0,0.2156,0.216,0.2205,0.2218,0.2222,0.2231,0.2238,0.224,0.2282,0.2268,0.2273,0.228,0.232,0.2324,0.2327,0.2328,0.235,0.235,0.2351,0.2351,0.2403,0.2403,0,0,0,0,0,0,0.2152,0.2158,0.2204,0.2207,0.2196,0.2231,0.2239,0.2247,0.2282,0.229,0.2279,0.2282,0.2322,0.2326,0.2329,0.238,0.235,0.2351,0.2351,0.2402,0.2403,0.2404,0,0,0,0,0,0,0.215,0.2155,0.2202,0.2184,0.2191,0.2231,0.224,0.2247,0.2269,0.229,0.2298,0.2295,0.2324,0.2328,0.2353,0.2379,0.2351,0.2352,0.24,0.2402,0.2403,0.2432,0,0,0,0,0,0,0.2148,0.2154,0.2161,0.2184,0.2192,0.2225,0.2239,0.2247,0.2271,0.2276,0.2306,0.2312,0.2325,0.2351,0.2353,0.238,0.2353,0.2399,0.2401,0.2403,0.243,0.2434,0.2438,0,0,0,0,0,0.2146,0.2148,0.2161,0.2167,0.2199,0.2225,0.223,0.2262,0.227,0.2285,0.2306,0.2312,0.2365,0.2352,0.2354,0.2382,0.2398,0.2401,0.2403,0.2428,0.2433,0.2438,0,0,0,0,0,0,0.2123,0.2155,0.2169,0.2181,0.221,0.2236,0.2249,0.2264,0.229,0.2298,0.2315,0.2322,0.2362,0.2359,0.2345,0.2403,0.2386,0.2388,0.2404,0.241,0.2414,0.2426,0.2353,0,0,0,0,0,0.2119,0.2134,0.2166,0.2178,0.2192,0.222,0.2234,0.2256,0.228,0.2293,0.2315,0.2338,0.2367,0.2378,0.2402,0.2417,0.243,0.2439,0.2443,0.2446,0.2459,0.2496,0.2505,0.2411,0.2411,0.2411,0,0,0.2112,0.2133,0.2141,0.2174,0.2197,0.2224,0.2232,0.2259,0.2287,0.2292,0.2333,0.2355,0.2376,0.2412,0.2428,0.2414,0.248,0.2449,0.2452,0.2462,0.2499,0.2508,0.2516,0.2412,0.2412,0.2412,0,0,0.2108,0.2126,0.2141,0.2167,0.2206,0.2228,0.2238,0.2273,0.2298,0.233,0.2354,0.2388,0.2416,0.2447,0.2462,0.2496,0.2507,0.2505,0.2528,0.2564,0.2572,0.258,0.2608,0.2618,0.2499,0.2499,0.2499,0,0.2101,0.2125,0.2149,0.2174,0.2199,0.2232,0.2258,0.2285,0.2325,0.235,0.2351,0.2423,0.2437,0.2491,0.2511,0.2508,0.2527,0.2507,0.257,0.2578,0.2585,0.2612,0.2623,0.2501,0.2501,0.2501,0.25,0,0.2112,0.2137,0.2148,0.2195,0.2223,0.225,0.2293,0.2327,0.2355,0.2384,0.2446,0.247,0.2516,0.2526,0.253,0.2592,0.2589,0.2577,0.2557,0.2596,0.2622,0.2633,0.2503,0.2503,0.2502,0.2502,0,0,0.2092,0.2146,0.2152,0.2178,0.2239,0.226,0.2314,0.2371,0.2412,0.2452,0.2507,0.2555,0.2574,0.2594,0.2607,0.2633,0.2695,0.2627,0.2628,0.2655,0.2777,0.2766,0.2776,0.2695,0.2697,0.2698,0.2776,0,0.2101,0.2141,0.2171,0.2218,0.2248,0.2297,0.2344,0.2399,0.2449,0.251,0.2549,0.2606,0.2598,0.2627,0.2656,0.2696,0.2724,0.2676,0.2737,0.2739,0.2724,0.2788,0.259,0.2642,0.2786,0.2787,0.2788,0,0.2108,0.2139,0.2179,0.224,0.2257,0.2291,0.2377,0.2423,0.2514,0.2553,0.2617,0.2655,0.2724,0.27,0.2786,0.2757,0.2775,0.279,0.2793,0.2782,0.2747,0.2627,0.2655,0.2805,0.2804,0.2803,0.2802,0,0.2088,0.2144,0.2175,0.2197,0.2271,0.2304,0.2351,0.2439,0.2493,0.2591,0.2646,0.2718,0.2776,0.2811,0.2859,0.2829,0.2945,0.2901,0.2905,0.2904,0.2748,0.273,0.2957,0.2956,0.2956,0.2956,0.2956,0,0.2088,0.2117,0.2166,0.2188,0.2232,0.2291,0.2358,0.2416,0.252,0.2586,0.2668,0.274,0.2809,0.2884,0.2895,0.2952,0.2978,0.2934,0.2934,0.2753,0.2735,0.2882,0.2872,0.2959,0.2958,0.2958,0.2957,0,0.2066,0.21,0.2137,0.2204,0.2224,0.2257,0.2356,0.2408,0.2512,0.2607,0.2645,0.2785,0.2884,0.2949,0.3022,0.301,0.3048,0.3054,0.2841,0.2815,0.2968,0.2959,0.3062,0.3063,0.3063,0.3064,0.3064,0,0.2056,0.2072,0.213,0.2147,0.2179,0.2238,0.2281,0.2389,0.245,0.2624,0.2666,0.2817,0.2901,0.3032,0.3046,0.3086,0.3095,0.2905,0.281,0.2996,0.2985,0.2975,0.2965,0.2607,0.2604,0.2601,0.2599,0,0.2039,0.2058,0.2086,0.2119,0.2156,0.2198,0.227,0.2312,0.244,0.2538,0.2667,0.2757,0.2909,0.2886,0.2962,0.2941,0.2883,0.285,0.3109,0.2622,0.2576,0.2562,0.2566,0.2574,0.2576,0.2578,0.2579,0.258,0.202,0.2024,0.2055,0.2081,0.2119,0.2142,0.2145,0.2238,0.2321,0.2427,0.2566,0.2639,0.2711,0.2744,0.2684,0.2643,0.2823,0.2683,0.2687,0.2696,0.264,0.2599,0.259,0.2592,0.2594,0.2596,0.2598,0,0.1975,0.1992,0.2015,0.2029,0.2028,0.2083,0.2121,0.2109,0.2161,0.2307,0.2405,0.2288,0.2323,0.2376,0.2301,0.2323,0.2247,0.221,0.2085,0.2116,0.2142,0.2051,0.1848,0.1845,0.1842,0.1839,0,0,0.1956,0.1951,0.1957,0.1932,0.1944,0.1907,0.1904,0.1914,0.1982,0.2014,0.2058,0.2259,0.2363,0.2082,0.2062,0.1942,0.1999,0.187,0.2488,0.2377,0.2398,0.2455,0.2357,0,0,0,0,0]},{"header":{"parameterUnit":"m.s-1","parameterCategory":2,"la1":30.2991,"la2":30.254,"lo1":-89.0895,"lo2":-89.0444,"dy":0.0017,"dx":0.0017,"nx":28,"ny":28,"refTime":"2024-03-19T09:00:00:Z","depth":"2","parameterNumber":3,"parameterNumberName":"V-component_of_CURRENTS"},"data":[0,0,0,0,0,0,0,0,0,0,0,0,0,0,0,0,0,0,0,0,0,0,0,0,0,0,0,0,0,0,0,0,0,0,0,0,0,0,0,0,0,0,0,0,0,0,0,0,0,0,0,0,0,0,0,0,0,0,0.0055,0.0055,0,-0.0018,-0.0019,-0.002,-0.0075,-0.0075,-0.0076,-0.0076,-0.0219,-0.0223,-0.0226,0,0,0,0,0,0,0,0,0,0,0,0,0,0.0099,0.0099,0.0055,0.0055,0.0054,-0.0018,-0.0019,-0.002,-0.0075,-0.0075,-0.0076,-0.0076,-0.0218,-0.0222,-0.0226,0,0,0,0,0,0,0,0,0,0,0,0,0,0.0058,0.0099,0.0056,0.0018,0.0014,-0.0018,-0.0019,-0.002,-0.0075,-0.0075,-0.0076,-0.0076,-0.0217,-0.0222,-0.0227,-0.0246,0,0,-0.0243,-0.0245,0,0,0,0,0,0,0,0,0.006,0.0056,0.0025,0.0021,0.0016,-0.0037,-0.0056,-0.0099,-0.0074,-0.0042,-0.0076,-0.0077,-0.0164,-0.0173,-0.0186,-0.0253,-0.0259,-0.0243,-0.0246,-0.0248,-0.025,0,0,0,0,0,0,0,0.0063,0.0059,0.0026,0.0024,0.0019,-0.0011,-0.0017,-0.0064,-0.01,-0.0045,-0.0049,-0.0055,-0.0167,-0.0181,-0.019,-0.0261,-0.0243,-0.0248,-0.0251,-0.0253,-0.0345,-0.0344,0,0,0,0,0,0,0.0077,0.0062,0.0028,0.0023,0.0038,-0.0011,-0.0018,-0.002,-0.0098,-0.011,-0.0055,-0.0057,-0.0172,-0.0184,-0.0195,-0.0216,-0.0248,-0.0253,-0.0256,-0.0345,-0.0345,-0.0344,0,0,0,0,0,0,0.0079,0.0075,0.0031,0.0041,0.0034,-0.0011,-0.0013,-0.0021,-0.0038,-0.0105,-0.0119,-0.0063,-0.0173,-0.0188,-0.0227,-0.0222,-0.0256,-0.026,-0.0346,-0.0345,-0.0344,-0.0261,0,0,0,0,0,0,0.008,0.0076,0.008,0.0043,0.0034,0.0018,-0.0012,-0.0022,-0.004,-0.0045,-0.0116,-0.013,-0.0174,-0.0219,-0.0232,-0.023,-0.0264,-0.0347,-0.0346,-0.0345,-0.0265,-0.0258,-0.0252,0,0,0,0,0,0.0082,0.0091,0.0081,0.0076,0.004,0.0018,0.0011,-0.0024,-0.004,-0.0042,-0.0085,-0.0128,-0.0221,-0.0223,-0.0238,-0.0237,-0.0348,-0.0346,-0.0345,-0.0268,-0.0259,-0.0252,0,0,0,0,0,0,0.011,0.0085,0.0073,0.0073,0.005,0.0009,0.0005,-0.0019,-0.0054,-0.0058,-0.0123,-0.0139,-0.0172,-0.0213,-0.0213,-0.0259,-0.0291,-0.0292,-0.0227,-0.0219,-0.0213,-0.0192,-0.0269,0,0,0,0,0,0.012,0.012,0.009,0.009,0.0083,0.0045,0.0032,0.0012,-0.0024,-0.004,-0.0088,-0.0136,-0.0177,-0.0204,-0.0246,-0.0274,-0.0309,-0.0282,-0.0275,-0.0269,-0.0262,-0.0306,-0.0302,-0.0339,-0.0339,-0.0339,0,0,0.0129,0.0117,0.0115,0.0096,0.0076,0.0077,0.0036,0.0024,0.0023,-0.0051,-0.0068,-0.0116,-0.0178,-0.0205,-0.0223,-0.024,-0.0275,-0.0267,-0.0262,-0.0258,-0.0304,-0.03,-0.0297,-0.0338,-0.0338,-0.0339,0,0,0.0154,0.014,0.0152,0.0141,0.0122,0.0101,0.0101,0.0067,0.0049,0.0027,-0.0022,-0.0063,-0.0126,-0.0167,-0.0197,-0.018,-0.0236,-0.0194,-0.0149,-0.019,-0.0188,-0.0186,-0.0214,-0.0215,-0.0192,-0.0192,-0.0192,0,0.0165,0.018,0.015,0.0163,0.0163,0.0118,0.0135,0.0111,0.0068,0.0058,0.0034,-0.005,-0.0107,-0.0142,-0.0135,-0.0166,-0.0192,-0.0174,-0.0181,-0.018,-0.018,-0.0209,-0.0212,-0.0188,-0.0188,-0.0189,-0.0189,0,0.0202,0.0215,0.0223,0.0227,0.0221,0.0228,0.0199,0.0189,0.0162,0.0133,0.0096,0.0024,-0.0026,-0.0051,-0.0091,-0.0114,-0.0133,-0.0165,-0.0199,-0.0171,-0.0204,-0.0208,-0.0182,-0.0183,-0.0185,-0.0186,0,0,0.0221,0.0246,0.0248,0.027,0.026,0.0261,0.0263,0.025,0.0254,0.0201,0.0197,0.0119,0.0077,0.0041,-0.0018,-0.0058,-0.0081,-0.0102,-0.0107,-0.0125,-0.0159,-0.0171,-0.0177,-0.0113,-0.0114,-0.0114,-0.018,0,0.0259,0.0309,0.0305,0.0348,0.0373,0.0346,0.0357,0.0338,0.0306,0.0289,0.0211,0.0181,0.0112,0.0092,0.0041,-0.0053,-0.0089,-0.0059,-0.0189,-0.0193,-0.0203,-0.0182,-0.0154,-0.021,-0.0184,-0.0185,-0.0185,0,0.0296,0.0328,0.0383,0.0426,0.0433,0.0448,0.0459,0.0462,0.0423,0.0397,0.0347,0.0286,0.0216,0.0158,0.002,0.0045,-0.0044,-0.0118,-0.0123,-0.0166,-0.0212,-0.0238,-0.0219,-0.0193,-0.0192,-0.0192,-0.0191,0,0.0331,0.0382,0.0432,0.0445,0.048,0.0498,0.0511,0.0492,0.0512,0.0463,0.0467,0.0366,0.0325,0.02,0.0047,0.0034,-0.01,-0.0142,-0.0233,-0.0235,-0.0253,-0.0256,-0.0229,-0.0229,-0.0229,-0.0229,-0.0229,0,0.0375,0.0415,0.0455,0.0484,0.0547,0.0549,0.0603,0.0591,0.0598,0.0632,0.0527,0.0528,0.0334,0.0234,0.0084,-0.008,-0.0075,-0.0217,-0.0252,-0.0222,-0.0221,-0.0245,-0.0246,-0.0231,-0.0231,-0.023,-0.023,0,0.0405,0.043,0.0496,0.0547,0.0567,0.061,0.0679,0.072,0.0708,0.0749,0.0744,0.065,0.0514,0.0324,0.0117,-0.0021,-0.0186,-0.0244,-0.0188,-0.0215,-0.0302,-0.0298,-0.0353,-0.0354,-0.0355,-0.0356,-0.0356,0,0.0426,0.0463,0.0541,0.0587,0.0613,0.0681,0.0738,0.0765,0.0818,0.0831,0.0862,0.0752,0.0689,0.0384,0.011,-0.0147,-0.0181,-0.0282,-0.031,-0.0285,-0.0314,-0.0309,-0.0304,-0.03,-0.03,-0.03,-0.03,0,0.0469,0.0493,0.055,0.0647,0.0715,0.0803,0.0885,0.0948,0.0991,0.1027,0.1056,0.1011,0.0723,0.0456,0.0099,-0.0071,-0.0243,-0.0291,-0.0285,-0.0269,-0.024,-0.0267,-0.0263,-0.0301,-0.0301,-0.0301,-0.0301,-0.0301,0.0498,0.0545,0.0622,0.0714,0.0802,0.0916,0.1,0.109,0.119,0.1259,0.121,0.1153,0.0841,0.0387,0.007,-0.0254,-0.0244,-0.035,-0.0348,-0.0347,-0.0325,-0.0298,-0.0365,-0.0366,-0.0366,-0.0366,-0.0366,0,0.0538,0.0597,0.0686,0.0805,0.0913,0.0954,0.1098,0.1183,0.1307,0.1363,0.1385,0.1115,0.0803,0.0452,-0.0037,-0.0328,-0.0348,-0.0407,-0.0374,-0.0371,-0.0369,-0.0347,-0.0395,-0.0396,-0.0397,-0.0397,0,0,0.0561,0.0652,0.0704,0.088,0.0971,0.1124,0.1214,0.1324,0.1398,0.1459,0.1439,0.1359,0.0922,0.0569,0.0161,-0.012,-0.0172,-0.0166,-0.0111,-0.002,-0.0014,-0.0303,-0.0262,0,0,0,0,0]}],[{"header":{"parameterUnit":"m.s-1","parameterCategory":2,"la1":30.2991,"la2":30.254,"lo1":-89.0895,"lo2":-89.0444,"dy":0.0017,"dx":0.0017,"nx":28,"ny":28,"refTime":"2024-03-19T09:00:00:Z","depth":"4","parameterNumber":2,"parameterNumberName":"U-component_of_CURRENTS"},"data":[0,0,0,0,0,0,0,0,0,0,0,0,0,0,0,0,0,0,0,0,0,0,0,0,0,0,0,0,0,0,0,0,0,0,0,0,0,0,0,0,0,0,0,0,0,0,0,0,0,0,0,0,0,0,0,0,0,0,0.1351,0.1352,0,0.1437,0.1438,0.1439,0.1494,0.1494,0.1495,0.1495,0.1584,0.1586,0.1588,0,0,0,0,0,0,0,0,0,0,0,0,0,0.1236,0.1238,0.135,0.1352,0.1353,0.1437,0.1438,0.1439,0.1494,0.1494,0.1495,0.1496,0.1583,0.1585,0.1588,0,0,0,0,0,0,0,0,0,0,0,0,0,0.1298,0.1238,0.135,0.1392,0.1397,0.1437,0.1438,0.1439,0.1494,0.1494,0.1495,0.1496,0.1582,0.1585,0.1588,0.159,0,0,0.1597,0.1598,0,0,0,0,0,0,0,0,0.1295,0.1302,0.1385,0.1389,0.1395,0.1457,0.143,0.149,0.1493,0.1455,0.1495,0.1496,0.1543,0.1549,0.156,0.1594,0.1598,0.1597,0.1599,0.16,0.1601,0,0,0,0,0,0,0,0.129,0.1299,0.1383,0.1386,0.1392,0.1408,0.1417,0.1442,0.1491,0.1458,0.1463,0.1476,0.1545,0.1557,0.1563,0.1599,0.1597,0.1599,0.1601,0.1602,0.1733,0.1735,0,0,0,0,0,0,0.1283,0.1295,0.138,0.1385,0.1348,0.1409,0.142,0.1435,0.1491,0.1501,0.1475,0.1478,0.1552,0.1559,0.1566,0.1656,0.16,0.1602,0.1604,0.1732,0.1734,0.1736,0,0,0,0,0,0,0.128,0.129,0.1376,0.1344,0.1356,0.1411,0.1427,0.1436,0.1482,0.1504,0.1514,0.1515,0.1553,0.1562,0.1619,0.1657,0.1604,0.1606,0.173,0.1732,0.1735,0.1782,0,0,0,0,0,0,0.1277,0.1288,0.1311,0.1343,0.1358,0.1422,0.1427,0.1437,0.1487,0.1493,0.1542,0.1549,0.1554,0.1614,0.1621,0.166,0.1608,0.1727,0.1731,0.1734,0.1778,0.1786,0.1793,0,0,0,0,0,0.1272,0.1295,0.1312,0.1323,0.1383,0.1423,0.1432,0.1471,0.1489,0.1515,0.155,0.1549,0.1641,0.1618,0.1626,0.1666,0.1726,0.173,0.1734,0.1775,0.1784,0.1792,0,0,0,0,0,0,0.1258,0.1304,0.1323,0.136,0.14,0.1434,0.1467,0.149,0.1538,0.1554,0.157,0.158,0.1646,0.165,0.1624,0.1715,0.1684,0.169,0.1713,0.1722,0.1729,0.1729,0.1611,0,0,0,0,0,0.1265,0.1298,0.1338,0.1373,0.1395,0.1437,0.1465,0.1492,0.1531,0.1555,0.1589,0.1626,0.1663,0.1688,0.1719,0.1766,0.1771,0.1798,0.1805,0.1811,0.1818,0.1857,0.1868,0.1749,0.1749,0.1749,0,0,0.1268,0.13,0.132,0.1373,0.1409,0.1446,0.1457,0.1509,0.1546,0.1556,0.1627,0.1658,0.1683,0.1739,0.1768,0.175,0.1849,0.1816,0.1821,0.1824,0.1862,0.1874,0.1884,0.1752,0.1751,0.1751,0,0,0.1281,0.1324,0.1352,0.1388,0.1448,0.1475,0.1497,0.1552,0.1588,0.1649,0.167,0.1723,0.178,0.1804,0.1822,0.1888,0.1889,0.1906,0.1941,0.198,0.199,0.1998,0.2022,0.2032,0.1906,0.1906,0.1906,0,0.1288,0.1327,0.1368,0.1403,0.1439,0.1491,0.1528,0.1569,0.1637,0.1673,0.1682,0.1785,0.1808,0.1871,0.1898,0.1904,0.1924,0.1903,0.1988,0.1997,0.2005,0.2027,0.2038,0.1909,0.1909,0.1908,0.1908,0,0.1311,0.1356,0.1379,0.1441,0.1483,0.1529,0.1584,0.1641,0.1692,0.173,0.1819,0.1854,0.1915,0.1933,0.1937,0.2013,0.2007,0.1994,0.1962,0.202,0.2039,0.205,0.1913,0.1912,0.1911,0.191,0,0,0.1291,0.1378,0.1389,0.1426,0.151,0.1543,0.1617,0.1692,0.1749,0.1818,0.189,0.1957,0.1989,0.2011,0.2031,0.2063,0.2136,0.206,0.2061,0.2076,0.2223,0.2096,0.2095,0.2144,0.2146,0.2148,0.2214,0,0.1302,0.1364,0.141,0.148,0.1519,0.1591,0.1653,0.173,0.1802,0.1885,0.1939,0.2016,0.2015,0.2058,0.2094,0.2134,0.2167,0.2119,0.2171,0.2173,0.2046,0.2103,0.2154,0.2221,0.2224,0.2225,0.2227,0,0.1302,0.135,0.1411,0.1506,0.1531,0.1584,0.1699,0.1764,0.1882,0.1941,0.2026,0.2075,0.2157,0.2139,0.2229,0.2205,0.2224,0.2238,0.2241,0.2111,0.2064,0.2153,0.2245,0.2244,0.2242,0.2241,0.224,0,0.1254,0.135,0.1399,0.1431,0.1542,0.1596,0.167,0.1788,0.186,0.1991,0.2059,0.2147,0.2216,0.2256,0.2301,0.228,0.2384,0.235,0.2249,0.224,0.2312,0.2302,0.2406,0.2406,0.2406,0.2406,0.2406,0,0.1232,0.1278,0.1387,0.1413,0.1489,0.1582,0.168,0.1766,0.1903,0.1985,0.2093,0.216,0.2254,0.2323,0.2335,0.2328,0.2415,0.2265,0.2252,0.2331,0.2322,0.2319,0.2308,0.2408,0.2408,0.2407,0.2407,0,0.1165,0.1237,0.1297,0.1417,0.1464,0.1522,0.1685,0.1757,0.1896,0.201,0.206,0.2205,0.2285,0.2355,0.2426,0.2364,0.237,0.2344,0.2437,0.2426,0.2189,0.218,0.2225,0.2221,0.2218,0.2215,0.2213,0,0.1133,0.1156,0.1278,0.1323,0.1384,0.1494,0.1573,0.1734,0.1813,0.2011,0.2052,0.2192,0.2265,0.227,0.2343,0.2359,0.2331,0.2315,0.2233,0.219,0.2173,0.2169,0.2165,0.2208,0.2207,0.2206,0.2205,0,0.1067,0.1115,0.1165,0.1252,0.1337,0.1424,0.1552,0.1599,0.178,0.192,0.2,0.2051,0.214,0.2185,0.2226,0.2226,0.2311,0.228,0.2285,0.2209,0.2169,0.2155,0.2155,0.2194,0.2195,0.2196,0.2197,0,0.1016,0.1031,0.1101,0.1173,0.1267,0.133,0.1411,0.1514,0.1611,0.1828,0.1843,0.1989,0.2115,0.2118,0.215,0.2151,0.2107,0.2025,0.2043,0.2056,0.1969,0.1892,0.183,0,0,0,0,0,0.0964,0.0977,0.1027,0.1094,0.1179,0.1242,0.1386,0.1473,0.1641,0.1655,0.1749,0.182,0.188,0.1955,0.1921,0.2068,0.211,0.2018,0.2023,0.2131,0.2144,0.2057,0,0,0,0,0,0,0.0931,0.0967,0.099,0.1013,0.1049,0.1138,0.1226,0.1343,0.1365,0.1535,0.1581,0.1704,0.1792,0.1877,0.1882,0.1904,0.1869,0.2111,0.2106,0.2123,0.2135,0.2146,0.2061,0,0,0,0,0]},{"header":{"parameterUnit":"m.s-1","parameterCategory":2,"la1":30.2991,"la2":30.254,"lo1":-89.0895,"lo2":-89.0444,"dy":0.0017,"dx":0.0017,"nx":28,"ny":28,"refTime":"2024-03-19T09:00:00:Z","depth":"4","parameterNumber":3,"parameterNumberName":"V-component_of_CURRENTS"},"data":[0,0,0,0,0,0,0,0,0,0,0,0,0,0,0,0,0,0,0,0,0,0,0,0,0,0,0,0,0,0,0,0,0,0,0,0,0,0,0,0,0,0,0,0,0,0,0,0,0,0,0,0,0,0,0,0,0,0,0.0103,0.0103,0,0.0048,0.0047,0.0047,0.0015,0.0015,0.0015,0.0015,-0.0098,-0.0101,-0.0104,0,0,0,0,0,0,0,0,0,0,0,0,0,0.0137,0.0137,0.0103,0.0103,0.0102,0.0048,0.0047,0.0046,0.0015,0.0015,0.0015,0.0015,-0.0097,-0.0101,-0.0104,0,0,0,0,0,0,0,0,0,0,0,0,0,0.0106,0.0137,0.0103,0.008,0.0077,0.0048,0.0047,0.0046,0.0015,0.0015,0.0015,0.0014,-0.0096,-0.0101,-0.0105,-0.013,0,0,-0.0118,-0.012,0,0,0,0,0,0,0,0,0.0108,0.0104,0.0084,0.0082,0.0079,0.0039,0.0018,-0.0015,0.0015,0.0038,0.0015,0.0014,-0.0058,-0.0065,-0.0075,-0.0135,-0.014,-0.0119,-0.0122,-0.0123,-0.0125,0,0,0,0,0,0,0,0.011,0.0106,0.0081,0.0083,0.008,0.0057,0.0053,0.0011,-0.001,0.0036,0.0034,0.0028,-0.006,-0.0071,-0.0078,-0.0142,-0.0119,-0.0123,-0.0125,-0.0127,-0.0215,-0.0215,0,0,0,0,0,0,0.012,0.0109,0.0083,0.0079,0.0094,0.0057,0.0052,0.0051,-0.0008,-0.0017,0.0029,0.0027,-0.0063,-0.0073,-0.0082,-0.0101,-0.0123,-0.0128,-0.013,-0.0215,-0.0215,-0.0215,0,0,0,0,0,0,0.0121,0.0118,0.0085,0.0093,0.0087,0.0057,0.0056,0.005,0.0038,-0.0013,-0.0023,0.0022,-0.0064,-0.0076,-0.011,-0.0106,-0.013,-0.0134,-0.0216,-0.0215,-0.0215,-0.0148,0,0,0,0,0,0,0.0122,0.0119,0.0122,0.0094,0.0087,0.0073,0.0056,0.0049,0.0035,0.0033,-0.0022,-0.0032,-0.0065,-0.0103,-0.0115,-0.0113,-0.0137,-0.0216,-0.0215,-0.0215,-0.015,-0.0145,-0.0141,0,0,0,0,0,0.0124,0.0128,0.0123,0.012,0.0092,0.0073,0.0067,0.0045,0.0035,0.0033,0.0001,-0.0031,-0.0108,-0.0107,-0.012,-0.0119,-0.0216,-0.0216,-0.0215,-0.0153,-0.0146,-0.0141,0,0,0,0,0,0,0.0142,0.0124,0.0118,0.0117,0.01,0.0068,0.0064,0.0047,0.002,0.0018,-0.0031,-0.0043,-0.0071,-0.0105,-0.0102,-0.0142,-0.0166,-0.0168,-0.0114,-0.0109,-0.0104,-0.0088,-0.0141,0,0,0,0,0,0.0149,0.015,0.0127,0.0126,0.0121,0.0093,0.0082,0.0069,0.0041,0.0029,-0.0007,-0.0045,-0.0079,-0.01,-0.0135,-0.0161,-0.0192,-0.0168,-0.0163,-0.0159,-0.0154,-0.0195,-0.0193,-0.0212,-0.0212,-0.0212,0,0,0.0154,0.0146,0.0146,0.0131,0.0117,0.0116,0.0087,0.0076,0.0076,0.0019,0.0006,-0.0032,-0.0081,-0.0104,-0.012,-0.0132,-0.0168,-0.0158,-0.0153,-0.0151,-0.0194,-0.0192,-0.0191,-0.0212,-0.0212,-0.0212,0,0,0.0171,0.0162,0.017,0.0162,0.0148,0.0132,0.0132,0.0105,0.0093,0.0074,0.0038,0.0004,-0.0047,-0.0078,-0.0102,-0.0094,-0.014,-0.0105,-0.0071,-0.011,-0.0109,-0.0108,-0.0138,-0.014,-0.0104,-0.0103,-0.0103,0,0.0178,0.019,0.0168,0.0177,0.0178,0.0144,0.0156,0.0139,0.0104,0.0096,0.008,0.0011,-0.0034,-0.0063,-0.0057,-0.0083,-0.0109,-0.0087,-0.0103,-0.0103,-0.0104,-0.0134,-0.0138,-0.01,-0.0101,-0.0101,-0.0101,0,0.0202,0.0214,0.0219,0.0224,0.0219,0.0223,0.0202,0.0195,0.0176,0.0153,0.0123,0.0066,0.0026,0.0006,-0.0025,-0.0048,-0.0065,-0.009,-0.0115,-0.0097,-0.0131,-0.0136,-0.0095,-0.0097,-0.0098,-0.0098,0,0,0.0209,0.0233,0.0235,0.0255,0.0248,0.0247,0.0251,0.0241,0.0244,0.0203,0.0199,0.0137,0.0104,0.0075,0.0029,-0.0007,-0.0034,-0.0044,-0.0047,-0.0067,-0.0113,-0.0114,-0.0121,-0.0061,-0.0062,-0.0062,-0.0132,0,0.0236,0.0274,0.0274,0.0309,0.0328,0.0311,0.0322,0.0307,0.0282,0.0267,0.0207,0.0181,0.0131,0.0114,0.0069,-0.0011,-0.0045,-0.0012,-0.0133,-0.0136,-0.0135,-0.0126,-0.0064,-0.0136,-0.0137,-0.0138,-0.0139,0,0.0258,0.0285,0.0329,0.0367,0.0374,0.0387,0.0397,0.0401,0.037,0.0351,0.031,0.0259,0.02,0.0157,0.0035,0.0059,-0.0017,-0.0079,-0.0084,-0.0112,-0.0147,-0.0162,-0.0149,-0.0148,-0.0147,-0.0146,-0.0146,0,0.0279,0.0322,0.0364,0.0375,0.0408,0.0426,0.0439,0.0425,0.0439,0.0401,0.0401,0.0316,0.028,0.0174,0.0043,0.0039,-0.009,-0.0117,-0.0188,-0.0189,-0.0197,-0.0197,-0.0197,-0.0197,-0.0197,-0.0196,-0.0196,0,0.0306,0.034,0.0381,0.0404,0.0456,0.0464,0.0507,0.0501,0.0506,0.0524,0.0448,0.0434,0.0282,0.0189,0.0066,-0.0072,-0.0076,-0.0178,-0.0207,-0.0166,-0.0162,-0.02,-0.02,-0.0199,-0.0199,-0.0198,-0.0198,0,0.032,0.0348,0.0401,0.045,0.047,0.0505,0.0565,0.0593,0.059,0.061,0.0606,0.052,0.0395,0.0242,0.0063,-0.0036,-0.0174,-0.0222,-0.0155,-0.018,-0.0251,-0.0246,-0.0305,-0.0306,-0.0306,-0.0307,-0.0307,0,0.0331,0.0361,0.0432,0.0468,0.0494,0.0552,0.0598,0.0628,0.066,0.066,0.0671,0.057,0.049,0.0252,0.0076,-0.0151,-0.0188,-0.0254,-0.0263,-0.0239,-0.0262,-0.0257,-0.0251,-0.0308,-0.0308,-0.0308,-0.0308,0,0.0349,0.0375,0.0419,0.0495,0.0552,0.0623,0.0687,0.072,0.0755,0.0757,0.0727,0.0604,0.0463,0.0261,0.0085,-0.0081,-0.021,-0.0261,-0.0261,-0.027,-0.0244,-0.0265,-0.0259,-0.031,-0.031,-0.031,-0.031,0,0.0358,0.0388,0.0448,0.0514,0.0592,0.0666,0.0704,0.075,0.0788,0.0791,0.0776,0.0628,0.054,0.0297,0.0134,-0.0029,-0.0077,-0.013,-0.0138,-0.0138,-0.0076,-0.0017,-0.0034,0,0,0,0,0,0.0362,0.0398,0.0461,0.0541,0.0622,0.0672,0.0752,0.0785,0.0822,0.0813,0.0802,0.0673,0.0436,0.033,0.0168,0.0101,-0.012,-0.0096,-0.0189,-0.032,-0.0318,-0.0275,0,0,0,0,0,0,0.0364,0.0421,0.0457,0.0554,0.0614,0.0709,0.0766,0.0793,0.0792,0.08,0.0678,0.063,0.0396,0.0529,0.0164,0.0114,0.0032,-0.0204,-0.0208,-0.0322,-0.032,-0.0318,-0.0272,0,0,0,0,0]}]]